Time,TemperatureF,DewpointF,PressureIn,WindDirection,WindDirectionDegrees,WindSpeedMPH,WindSpeedGustMPH,Humidity,HourlyPrecipIn,Conditions,Clouds,dailyrainin,SoftwareType,DateUTC
2013-06-05 00:00:00,69.7,52.8,30.10,North,360,0.0,0.0,55,0.00,,,0.00,Wunderground v.1.15,2013-06-05 04:00:00,
2013-06-05 00:02:00,69.7,52.8,30.10,North,360,0.0,0.0,55,0.00,,,0.00,Wunderground v.1.15,2013-06-05 04:02:00,
2013-06-05 00:04:00,69.6,52.7,30.10,North,360,0.0,0.0,55,0.00,,,0.00,Wunderground v.1.15,2013-06-05 04:04:00,
2013-06-05 00:05:00,69.6,52.7,30.10,North,360,0.0,0.0,55,0.00,,,0.00,Wunderground v.1.15,2013-06-05 04:05:00,
2013-06-05 00:07:00,69.6,52.7,30.10,North,360,0.0,0.0,55,0.00,,,0.00,Wunderground v.1.15,2013-06-05 04:07:00,
2013-06-05 00:10:00,69.5,52.6,30.10,North,360,0.0,0.0,55,0.00,,,0.00,Wunderground v.1.15,2013-06-05 04:10:00,
2013-06-05 00:12:00,69.5,52.6,30.10,North,360,0.0,0.0,55,0.00,,,0.00,Wunderground v.1.15,2013-06-05 04:12:00,
2013-06-05 00:14:00,69.5,52.6,30.10,North,360,0.0,0.0,55,0.00,,,0.00,Wunderground v.1.15,2013-06-05 04:14:00,
2013-06-05 00:16:00,69.5,52.1,30.10,North,360,0.0,0.0,54,0.00,,,0.00,Wunderground v.1.15,2013-06-05 04:16:00,
2013-06-05 00:20:00,69.4,52.5,30.10,North,360,0.0,0.0,55,0.00,,,0.00,Wunderground v.1.15,2013-06-05 04:20:00,
2013-06-05 00:22:00,69.4,52.0,30.10,North,360,0.0,0.0,54,0.00,,,0.00,Wunderground v.1.15,2013-06-05 04:22:00,
2013-06-05 00:24:00,69.4,53.0,30.10,North,360,0.0,0.0,56,0.00,,,0.00,Wunderground v.1.15,2013-06-05 04:24:00,
2013-06-05 00:30:00,69.2,53.3,30.10,North,360,0.0,0.0,57,0.00,,,0.00,Wunderground v.1.15,2013-06-05 04:30:00,
2013-06-05 00:32:00,69.1,53.2,30.10,North,360,0.0,0.0,57,0.00,,,0.00,Wunderground v.1.15,2013-06-05 04:32:00,
2013-06-05 00:34:00,69.0,53.1,30.10,North,360,0.0,0.0,57,0.00,,,0.00,Wunderground v.1.15,2013-06-05 04:34:00,
2013-06-05 00:38:00,68.9,53.5,30.10,North,360,0.0,0.0,58,0.00,,,0.00,Wunderground v.1.15,2013-06-05 04:38:00,
2013-06-05 00:44:00,68.9,54.0,30.10,North,360,1.0,2.0,59,0.00,,,0.00,Wunderground v.1.15,2013-06-05 04:44:00,
2013-06-05 00:46:00,68.9,53.5,30.10,North,360,1.0,2.0,58,0.00,,,0.00,Wunderground v.1.15,2013-06-05 04:46:00,
2013-06-05 00:47:00,69.0,53.6,30.10,North,360,1.0,2.0,58,0.00,,,0.00,Wunderground v.1.15,2013-06-05 04:47:00,
2013-06-05 00:54:00,68.4,54.4,30.10,North,360,2.0,6.0,61,0.00,,,0.00,Wunderground v.1.15,2013-06-05 04:54:00,
2013-06-05 00:55:00,67.9,54.4,30.10,North,360,3.0,6.0,62,0.00,,,0.00,Wunderground v.1.15,2013-06-05 04:55:00,
2013-06-05 00:57:00,67.5,54.5,30.10,North,360,3.0,6.0,63,0.00,,,0.00,Wunderground v.1.15,2013-06-05 04:57:00,
2013-06-05 01:00:00,67.3,54.3,30.10,North,360,4.0,4.0,63,0.00,,,0.00,Wunderground v.1.15,2013-06-05 05:00:00,
2013-06-05 01:02:00,67.1,54.1,30.10,North,360,4.0,4.0,63,0.00,,,0.00,Wunderground v.1.15,2013-06-05 05:02:00,
2013-06-05 01:04:00,67.1,54.5,30.10,North,360,3.0,4.0,64,0.00,,,0.00,Wunderground v.1.15,2013-06-05 05:04:00,
2013-06-05 01:08:00,67.2,54.6,30.10,North,360,2.0,4.0,64,0.00,,,0.00,Wunderground v.1.15,2013-06-05 05:08:00,
2013-06-05 01:09:00,67.2,54.6,30.10,North,360,2.0,2.0,64,0.00,,,0.00,Wunderground v.1.15,2013-06-05 05:09:00,
2013-06-05 01:11:00,67.2,54.6,30.10,North,360,2.0,3.0,64,0.00,,,0.00,Wunderground v.1.15,2013-06-05 05:11:00,
2013-06-05 01:14:00,67.1,54.1,30.10,North,360,1.0,3.0,63,0.00,,,0.00,Wunderground v.1.15,2013-06-05 05:14:00,
2013-06-05 01:16:00,67.1,54.1,30.10,North,360,1.0,3.0,63,0.00,,,0.00,Wunderground v.1.15,2013-06-05 05:16:00,
2013-06-05 01:18:00,66.9,53.9,30.10,North,360,2.0,5.0,63,0.00,,,0.00,Wunderground v.1.15,2013-06-05 05:18:00,
2013-06-05 01:22:00,66.5,53.9,30.10,North,360,3.0,4.0,64,0.00,,,0.00,Wunderground v.1.15,2013-06-05 05:22:00,
2013-06-05 01:24:00,66.6,54.0,30.10,North,360,3.0,4.0,64,0.00,,,0.00,Wunderground v.1.15,2013-06-05 05:24:00,
2013-06-05 01:25:00,66.6,54.0,30.10,North,360,3.0,4.0,64,0.00,,,0.00,Wunderground v.1.15,2013-06-05 05:25:00,
2013-06-05 01:30:00,66.6,53.6,30.10,North,360,1.0,1.0,63,0.00,,,0.00,Wunderground v.1.15,2013-06-05 05:30:00,
2013-06-05 01:32:00,66.5,53.5,30.10,North,360,1.0,1.0,63,0.00,,,0.00,Wunderground v.1.15,2013-06-05 05:32:00,
2013-06-05 01:34:00,66.4,53.4,30.10,North,360,0.0,1.0,63,0.00,,,0.00,Wunderground v.1.15,2013-06-05 05:34:00,
2013-06-05 01:38:00,66.3,53.8,30.10,North,360,0.0,1.0,64,0.00,,,0.00,Wunderground v.1.15,2013-06-05 05:38:00,
2013-06-05 01:39:00,66.3,53.8,30.10,North,360,0.0,0.0,64,0.00,,,0.00,Wunderground v.1.15,2013-06-05 05:39:00,
2013-06-05 01:46:00,66.1,53.6,30.10,North,360,0.0,0.0,64,0.00,,,0.00,Wunderground v.1.15,2013-06-05 05:46:00,
2013-06-05 01:47:00,66.1,53.6,30.10,North,360,0.0,0.0,64,0.00,,,0.00,Wunderground v.1.15,2013-06-05 05:47:00,
2013-06-05 01:54:00,65.9,53.4,30.10,North,360,0.0,0.0,64,0.00,,,0.00,Wunderground v.1.15,2013-06-05 05:54:00,
2013-06-05 01:55:00,65.9,53.8,30.10,North,360,0.0,0.0,65,0.00,,,0.00,Wunderground v.1.15,2013-06-05 05:55:00,
2013-06-05 01:57:00,65.9,53.8,30.10,North,360,0.0,0.0,65,0.00,,,0.00,Wunderground v.1.15,2013-06-05 05:57:00,
2013-06-05 02:00:00,66.0,53.9,30.10,North,360,0.0,0.0,65,0.00,,,0.00,Wunderground v.1.15,2013-06-05 06:00:00,
2013-06-05 02:02:00,66.1,54.0,30.10,North,360,0.0,0.0,65,0.00,,,0.00,Wunderground v.1.15,2013-06-05 06:02:00,
2013-06-05 02:04:00,66.3,53.8,30.10,North,360,0.0,1.0,64,0.00,,,0.00,Wunderground v.1.15,2013-06-05 06:04:00,
2013-06-05 02:08:00,66.6,54.0,30.09,North,360,0.0,1.0,64,0.00,,,0.00,Wunderground v.1.15,2013-06-05 06:08:00,
2013-06-05 02:09:00,66.7,54.1,30.09,North,360,0.0,2.0,64,0.00,,,0.00,Wunderground v.1.15,2013-06-05 06:09:00,
2013-06-05 02:14:00,66.7,53.7,30.09,North,360,1.0,2.0,63,0.00,,,0.00,Wunderground v.1.15,2013-06-05 06:14:00,
2013-06-05 02:16:00,66.7,54.1,30.09,North,360,1.0,2.0,64,0.00,,,0.00,Wunderground v.1.15,2013-06-05 06:16:00,
2013-06-05 02:18:00,66.6,54.0,30.09,North,360,1.0,2.0,64,0.00,,,0.00,Wunderground v.1.15,2013-06-05 06:18:00,
2013-06-05 02:19:00,66.6,54.0,30.09,North,360,1.0,1.0,64,0.00,,,0.00,Wunderground v.1.15,2013-06-05 06:19:00,
2013-06-05 02:24:00,66.5,53.9,30.09,North,360,0.0,1.0,64,0.00,,,0.00,Wunderground v.1.15,2013-06-05 06:24:00,
2013-06-05 02:25:00,66.5,53.9,30.09,North,360,0.0,1.0,64,0.00,,,0.00,Wunderground v.1.15,2013-06-05 06:25:00,
2013-06-05 02:30:00,66.5,54.4,30.09,North,360,0.0,0.0,65,0.00,,,0.00,Wunderground v.1.15,2013-06-05 06:30:00,
2013-06-05 02:32:00,66.5,54.4,30.09,North,360,0.0,0.0,65,0.00,,,0.00,Wunderground v.1.15,2013-06-05 06:32:00,
2013-06-05 02:38:00,66.8,54.7,30.09,North,360,1.0,4.0,65,0.00,,,0.00,Wunderground v.1.15,2013-06-05 06:38:00,
2013-06-05 02:39:00,66.9,54.7,30.09,North,360,1.0,2.0,65,0.00,,,0.00,Wunderground v.1.15,2013-06-05 06:39:00,
2013-06-05 02:41:00,66.8,54.7,30.09,North,360,1.0,2.0,65,0.00,,,0.00,Wunderground v.1.15,2013-06-05 06:41:00,
2013-06-05 02:46:00,66.6,54.5,30.09,North,360,2.0,2.0,65,0.00,,,0.00,Wunderground v.1.15,2013-06-05 06:46:00,
2013-06-05 02:48:00,66.5,54.4,30.09,North,360,1.0,2.0,65,0.00,,,0.00,Wunderground v.1.15,2013-06-05 06:48:00,
2013-06-05 02:52:00,66.3,54.2,30.09,North,360,0.0,1.0,65,0.00,,,0.00,Wunderground v.1.15,2013-06-05 06:52:00,
2013-06-05 02:54:00,66.2,54.5,30.09,North,360,0.0,1.0,66,0.00,,,0.00,Wunderground v.1.15,2013-06-05 06:54:00,
2013-06-05 02:57:00,66.1,54.4,30.09,North,360,0.0,1.0,66,0.00,,,0.00,Wunderground v.1.15,2013-06-05 06:57:00,
2013-06-05 03:00:00,66.0,54.7,30.10,North,360,0.0,0.0,67,0.00,,,0.00,Wunderground v.1.15,2013-06-05 07:00:00,
2013-06-05 03:02:00,65.9,54.6,30.09,North,360,0.0,0.0,67,0.00,,,0.00,Wunderground v.1.15,2013-06-05 07:02:00,
2013-06-05 03:08:00,65.8,54.9,30.09,North,360,1.0,3.0,68,0.00,,,0.00,Wunderground v.1.15,2013-06-05 07:08:00,
2013-06-05 03:10:00,65.8,54.9,30.09,North,360,1.0,2.0,68,0.00,,,0.00,Wunderground v.1.15,2013-06-05 07:10:00,
2013-06-05 03:14:00,65.7,54.8,30.09,North,360,2.0,2.0,68,0.00,,,0.00,Wunderground v.1.15,2013-06-05 07:14:00,
2013-06-05 03:16:00,65.6,54.8,30.09,North,360,2.0,2.0,68,0.00,,,0.00,Wunderground v.1.15,2013-06-05 07:16:00,
2013-06-05 03:17:00,65.6,54.8,30.09,North,360,2.0,2.0,68,0.00,,,0.00,Wunderground v.1.15,2013-06-05 07:17:00,
2013-06-05 03:22:00,65.4,55.0,30.10,North,360,0.0,1.0,69,0.00,,,0.00,Wunderground v.1.15,2013-06-05 07:22:00,
2013-06-05 03:25:00,65.2,54.8,30.10,North,360,0.0,1.0,69,0.00,,,0.00,Wunderground v.1.15,2013-06-05 07:25:00,
2013-06-05 03:30:00,65.0,54.6,30.10,North,360,0.0,0.0,69,0.00,,,0.00,Wunderground v.1.15,2013-06-05 07:30:00,
2013-06-05 03:31:00,64.9,54.5,30.10,North,360,0.0,0.0,69,0.00,,,0.00,Wunderground v.1.15,2013-06-05 07:31:00,
2013-06-05 03:34:00,64.9,54.5,30.10,North,360,0.0,0.0,69,0.00,,,0.00,Wunderground v.1.15,2013-06-05 07:34:00,
2013-06-05 03:38:00,64.8,54.8,30.10,North,360,0.0,0.0,70,0.00,,,0.00,Wunderground v.1.15,2013-06-05 07:38:00,
2013-06-05 03:41:00,64.8,54.8,30.10,North,360,0.0,0.0,70,0.00,,,0.00,Wunderground v.1.15,2013-06-05 07:41:00,
2013-06-05 03:45:00,64.8,54.8,30.10,North,360,0.0,0.0,70,0.00,,,0.00,Wunderground v.1.15,2013-06-05 07:45:00,
2013-06-05 03:47:00,64.8,54.8,30.10,North,360,0.0,0.0,70,0.00,,,0.00,Wunderground v.1.15,2013-06-05 07:47:00,
2013-06-05 03:50:00,64.7,55.1,30.10,North,360,0.0,2.0,71,0.00,,,0.00,Wunderground v.1.15,2013-06-05 07:50:00,
2013-06-05 03:54:00,64.5,54.9,30.10,North,360,1.0,2.0,71,0.00,,,0.00,Wunderground v.1.15,2013-06-05 07:54:00,
2013-06-05 03:55:00,64.4,54.8,30.10,North,360,1.0,2.0,71,0.00,,,0.00,Wunderground v.1.15,2013-06-05 07:55:00,
2013-06-05 04:00:00,64.6,55.0,30.10,North,360,1.0,1.0,71,0.00,,,0.00,Wunderground v.1.15,2013-06-05 08:00:00,
2013-06-05 04:02:00,64.6,55.0,30.10,North,360,1.0,3.0,71,0.00,,,0.00,Wunderground v.1.15,2013-06-05 08:02:00,
2013-06-05 04:04:00,64.6,55.0,30.10,North,360,1.0,3.0,71,0.00,,,0.00,Wunderground v.1.15,2013-06-05 08:04:00,
2013-06-05 04:06:00,64.6,55.0,30.10,North,360,2.0,3.0,71,0.00,,,0.00,Wunderground v.1.15,2013-06-05 08:06:00,
2013-06-05 04:08:00,64.5,55.3,30.10,North,360,2.0,3.0,72,0.00,,,0.00,Wunderground v.1.15,2013-06-05 08:08:00,
2013-06-05 04:12:00,64.3,55.1,30.10,North,360,2.0,2.0,72,0.00,,,0.00,Wunderground v.1.15,2013-06-05 08:12:00,
2013-06-05 04:14:00,64.2,55.0,30.11,North,360,2.0,2.0,72,0.00,,,0.00,Wunderground v.1.15,2013-06-05 08:14:00,
2013-06-05 04:16:00,64.2,55.0,30.11,North,360,1.0,2.0,72,0.00,,,0.00,Wunderground v.1.15,2013-06-05 08:16:00,
2013-06-05 04:20:00,64.1,55.3,30.11,North,360,0.0,0.0,73,0.00,,,0.00,Wunderground v.1.15,2013-06-05 08:20:00,
2013-06-05 04:22:00,64.1,55.3,30.11,North,360,0.0,0.0,73,0.00,,,0.00,Wunderground v.1.15,2013-06-05 08:22:00,
2013-06-05 04:26:00,64.1,55.3,30.11,North,360,0.0,0.0,73,0.00,,,0.00,Wunderground v.1.15,2013-06-05 08:26:00,
2013-06-05 04:30:00,64.1,55.3,30.11,North,360,0.0,0.0,73,0.00,,,0.00,Wunderground v.1.15,2013-06-05 08:30:00,
2013-06-05 04:32:00,64.1,55.3,30.11,North,360,0.0,0.0,73,0.00,,,0.00,Wunderground v.1.15,2013-06-05 08:32:00,
2013-06-05 04:36:00,64.0,55.2,30.11,North,360,0.0,0.0,73,0.00,,,0.00,Wunderground v.1.15,2013-06-05 08:36:00,
2013-06-05 04:40:00,64.0,55.2,30.11,North,360,0.0,0.0,73,0.00,,,0.00,Wunderground v.1.15,2013-06-05 08:40:00,
2013-06-05 04:42:00,63.9,55.1,30.11,North,360,0.0,1.0,73,0.00,,,0.00,Wunderground v.1.15,2013-06-05 08:42:00,
2013-06-05 04:46:00,64.0,55.5,30.11,North,360,1.0,1.0,74,0.00,,,0.00,Wunderground v.1.15,2013-06-05 08:46:00,
2013-06-05 04:48:00,64.0,55.5,30.12,North,360,1.0,1.0,74,0.00,,,0.00,Wunderground v.1.15,2013-06-05 08:48:00,
2013-06-05 04:50:00,64.0,55.5,30.12,North,360,1.0,1.0,74,0.00,,,0.00,Wunderground v.1.15,2013-06-05 08:50:00,
2013-06-05 04:54:00,64.0,55.5,30.12,North,360,1.0,1.0,74,0.00,,,0.00,Wunderground v.1.15,2013-06-05 08:54:00,
2013-06-05 04:56:00,63.9,55.4,30.12,North,360,0.0,1.0,74,0.00,,,0.00,Wunderground v.1.15,2013-06-05 08:56:00,
2013-06-05 04:58:00,63.9,55.4,30.12,North,360,0.0,1.0,74,0.00,,,0.00,Wunderground v.1.15,2013-06-05 08:58:00,
2013-06-05 05:00:00,63.8,55.4,30.12,North,360,0.0,0.0,74,0.00,,,0.00,Wunderground v.1.15,2013-06-05 09:00:00,
2013-06-05 05:02:00,63.8,55.7,30.12,North,360,0.0,1.0,75,0.00,,,0.00,Wunderground v.1.15,2013-06-05 09:02:00,
2013-06-05 05:04:00,63.8,55.7,30.12,North,360,0.0,1.0,75,0.00,,,0.00,Wunderground v.1.15,2013-06-05 09:04:00,
2013-06-05 05:06:00,63.7,55.6,30.12,North,360,0.0,1.0,75,0.00,,,0.00,Wunderground v.1.15,2013-06-05 09:06:00,
2013-06-05 05:10:00,63.7,55.6,30.12,North,360,0.0,0.0,75,0.00,,,0.00,Wunderground v.1.15,2013-06-05 09:10:00,
2013-06-05 05:12:00,63.7,56.0,30.12,North,360,0.0,0.0,76,0.00,,,0.00,Wunderground v.1.15,2013-06-05 09:12:00,
2013-06-05 05:14:00,63.7,56.0,30.12,North,360,0.0,0.0,76,0.00,,,0.00,Wunderground v.1.15,2013-06-05 09:14:00,
2013-06-05 05:18:00,63.6,55.9,30.12,North,360,0.0,0.0,76,0.00,,,0.00,Wunderground v.1.15,2013-06-05 09:18:00,
2013-06-05 05:20:00,63.6,55.9,30.13,North,360,0.0,2.0,76,0.00,,,0.00,Wunderground v.1.15,2013-06-05 09:20:00,
2013-06-05 05:22:00,63.6,55.9,30.12,North,360,0.0,2.0,76,0.00,,,0.00,Wunderground v.1.15,2013-06-05 09:22:00,
2013-06-05 05:26:00,63.6,55.9,30.13,North,360,0.0,2.0,76,0.00,,,0.00,Wunderground v.1.15,2013-06-05 09:26:00,
2013-06-05 05:28:00,63.6,55.9,30.13,North,360,0.0,2.0,76,0.00,,,0.00,Wunderground v.1.15,2013-06-05 09:28:00,
2013-06-05 05:34:00,63.5,56.2,30.13,North,360,0.0,0.0,77,0.00,,,0.00,Wunderground v.1.15,2013-06-05 09:34:00,
2013-06-05 05:36:00,63.5,56.2,30.13,North,360,0.0,0.0,77,0.00,,,0.00,Wunderground v.1.15,2013-06-05 09:36:00,
2013-06-05 05:40:00,63.4,56.1,30.13,North,360,0.0,0.0,77,0.00,,,0.00,Wunderground v.1.15,2013-06-05 09:40:00,
2013-06-05 05:42:00,63.3,56.0,30.13,North,360,0.0,0.0,77,0.00,,,0.00,Wunderground v.1.15,2013-06-05 09:42:00,
2013-06-05 05:44:00,63.3,56.0,30.13,North,360,0.0,0.0,77,0.00,,,0.00,Wunderground v.1.15,2013-06-05 09:44:00,
2013-06-05 05:46:00,63.2,55.9,30.13,North,360,0.0,0.0,77,0.00,,,0.00,Wunderground v.1.15,2013-06-05 09:46:00,
2013-06-05 05:48:00,63.2,55.9,30.13,North,360,0.0,0.0,77,0.00,,,0.00,Wunderground v.1.15,2013-06-05 09:48:00,
2013-06-05 05:50:00,63.1,55.8,30.13,North,360,0.0,0.0,77,0.00,,,0.00,Wunderground v.1.15,2013-06-05 09:50:00,
2013-06-05 05:52:00,63.1,55.8,30.13,North,360,0.0,0.0,77,0.00,,,0.00,Wunderground v.1.15,2013-06-05 09:52:00,
2013-06-05 05:54:00,63.1,55.8,30.13,North,360,0.0,0.0,77,0.00,,,0.00,Wunderground v.1.15,2013-06-05 09:54:00,
2013-06-05 05:56:00,63.1,55.8,30.13,North,360,0.0,0.0,77,0.00,,,0.00,Wunderground v.1.15,2013-06-05 09:56:00,
2013-06-05 05:58:00,63.1,55.8,30.14,North,360,0.0,0.0,77,0.00,,,0.00,Wunderground v.1.15,2013-06-05 09:58:00,
2013-06-05 06:00:00,63.1,56.1,30.14,North,360,0.0,0.0,78,0.00,,,0.00,Wunderground v.1.15,2013-06-05 10:00:00,
2013-06-05 06:02:00,63.2,55.9,30.14,North,360,0.0,0.0,77,0.00,,,0.00,Wunderground v.1.15,2013-06-05 10:02:00,
2013-06-05 06:04:00,63.3,56.3,30.14,North,360,0.0,0.0,78,0.00,,,0.00,Wunderground v.1.15,2013-06-05 10:04:00,
2013-06-05 06:08:00,63.4,56.4,30.14,North,360,0.0,0.0,78,0.00,,,0.00,Wunderground v.1.15,2013-06-05 10:08:00,
2013-06-05 06:10:00,63.5,56.2,30.14,North,360,0.0,0.0,77,0.00,,,0.00,Wunderground v.1.15,2013-06-05 10:10:00,
2013-06-05 06:14:00,63.7,56.4,30.14,North,360,0.0,0.0,77,0.00,,,0.00,Wunderground v.1.15,2013-06-05 10:14:00,
2013-06-05 06:16:00,63.8,56.4,30.14,North,360,0.0,0.0,77,0.00,,,0.00,Wunderground v.1.15,2013-06-05 10:16:00,
2013-06-05 06:18:00,63.8,56.4,30.14,North,360,0.0,0.0,77,0.00,,,0.00,Wunderground v.1.15,2013-06-05 10:18:00,
2013-06-05 06:24:00,64.1,56.4,30.14,North,360,0.0,0.0,76,0.00,,,0.00,Wunderground v.1.15,2013-06-05 10:24:00,
2013-06-05 06:26:00,64.3,56.6,30.14,North,360,0.0,0.0,76,0.00,,,0.00,Wunderground v.1.15,2013-06-05 10:26:00,
2013-06-05 06:30:00,64.5,56.8,30.14,North,360,0.0,2.0,76,0.00,,,0.00,Wunderground v.1.15,2013-06-05 10:30:00,
2013-06-05 06:32:00,64.6,56.5,30.14,North,360,0.0,2.0,75,0.00,,,0.00,Wunderground v.1.15,2013-06-05 10:32:00,
2013-06-05 06:36:00,64.8,56.7,30.15,North,360,0.0,3.0,75,0.00,,,0.00,Wunderground v.1.15,2013-06-05 10:36:00,
2013-06-05 06:38:00,64.9,56.4,30.15,North,360,1.0,3.0,74,0.00,,,0.00,Wunderground v.1.15,2013-06-05 10:38:00,
2013-06-05 06:40:00,64.8,56.7,30.15,North,360,1.0,1.0,75,0.00,,,0.00,Wunderground v.1.15,2013-06-05 10:40:00,
2013-06-05 06:42:00,64.7,56.6,30.15,North,360,0.0,2.0,75,0.00,,,0.00,Wunderground v.1.15,2013-06-05 10:42:00,
2013-06-05 06:44:00,64.6,56.1,30.15,North,360,1.0,2.0,74,0.00,,,0.00,Wunderground v.1.15,2013-06-05 10:44:00,
2013-06-05 06:46:00,64.6,56.5,30.15,North,360,1.0,2.0,75,0.00,,,0.00,Wunderground v.1.15,2013-06-05 10:46:00,
2013-06-05 06:50:00,64.6,56.5,30.15,North,360,2.0,4.0,75,0.00,,,0.00,Wunderground v.1.15,2013-06-05 10:50:00,
2013-06-05 06:52:00,64.6,56.5,30.15,North,360,2.0,4.0,75,0.00,,,0.00,Wunderground v.1.15,2013-06-05 10:52:00,
2013-06-05 06:54:00,64.6,56.5,30.15,North,360,3.0,4.0,75,0.00,,,0.00,Wunderground v.1.15,2013-06-05 10:54:00,
2013-06-05 06:56:00,64.7,56.6,30.15,North,360,3.0,4.0,75,0.00,,,0.00,Wunderground v.1.15,2013-06-05 10:56:00,
2013-06-05 06:58:00,64.8,56.7,30.15,North,360,4.0,5.0,75,0.00,,,0.00,Wunderground v.1.15,2013-06-05 10:58:00,
2013-06-05 07:00:00,64.7,56.6,30.15,North,360,4.0,7.0,75,0.00,,,0.00,Wunderground v.1.15,2013-06-05 11:00:00,
2013-06-05 07:04:00,64.2,56.1,30.15,North,360,6.0,9.0,75,0.00,,,0.00,Wunderground v.1.15,2013-06-05 11:04:00,
2013-06-05 07:06:00,63.8,55.7,30.15,North,360,7.0,9.0,75,0.00,,,0.00,Wunderground v.1.15,2013-06-05 11:06:00,
2013-06-05 07:08:00,63.7,56.0,30.16,North,360,8.0,12.0,76,0.00,,,0.00,Wunderground v.1.15,2013-06-05 11:08:00,
2013-06-05 07:10:00,63.3,55.6,30.15,North,360,8.0,8.0,76,0.00,,,0.00,Wunderground v.1.15,2013-06-05 11:10:00,
2013-06-05 07:12:00,63.0,55.7,30.15,North,360,8.0,12.0,77,0.00,,,0.00,Wunderground v.1.15,2013-06-05 11:12:00,
2013-06-05 07:16:00,62.3,55.4,30.15,North,360,8.0,12.0,78,0.00,,,0.00,Wunderground v.1.15,2013-06-05 11:16:00,
2013-06-05 07:20:00,62.3,55.4,30.16,North,360,7.0,7.0,78,0.00,,,0.00,Wunderground v.1.15,2013-06-05 11:20:00,
2013-06-05 07:22:00,62.5,55.5,30.16,North,360,6.0,7.0,78,0.00,,,0.00,Wunderground v.1.15,2013-06-05 11:22:00,
2013-06-05 07:24:00,62.7,55.7,30.16,North,360,5.0,7.0,78,0.00,,,0.00,Wunderground v.1.15,2013-06-05 11:24:00,
2013-06-05 07:26:00,63.0,55.7,30.16,North,360,4.0,7.0,77,0.00,,,0.00,Wunderground v.1.15,2013-06-05 11:26:00,
2013-06-05 07:32:00,63.6,55.2,30.16,North,360,4.0,4.0,74,0.00,,,0.00,Wunderground v.1.15,2013-06-05 11:32:00,
2013-06-05 07:36:00,64.0,55.2,30.16,North,360,4.0,4.0,73,0.00,,,0.00,Wunderground v.1.15,2013-06-05 11:36:00,
2013-06-05 07:40:00,64.6,55.4,30.16,North,360,4.0,5.0,72,0.00,,,0.00,Wunderground v.1.15,2013-06-05 11:40:00,
2013-06-05 07:42:00,64.9,54.9,30.16,North,360,4.0,5.0,70,0.00,,,0.00,Wunderground v.1.15,2013-06-05 11:42:00,
2013-06-05 07:46:00,65.1,54.7,30.16,North,360,4.0,5.0,69,0.00,,,0.00,Wunderground v.1.15,2013-06-05 11:46:00,
2013-06-05 07:48:00,65.4,54.6,30.16,North,360,4.0,5.0,68,0.00,,,0.00,Wunderground v.1.15,2013-06-05 11:48:00,
2013-06-05 07:50:00,65.5,54.7,30.16,North,360,4.0,6.0,68,0.00,,,0.00,Wunderground v.1.15,2013-06-05 11:50:00,
2013-06-05 07:52:00,65.6,54.3,30.15,North,360,4.0,6.0,67,0.00,,,0.00,Wunderground v.1.15,2013-06-05 11:52:00,
2013-06-05 07:58:00,66.1,54.8,30.16,North,360,4.0,7.0,67,0.00,,,0.00,Wunderground v.1.15,2013-06-05 11:58:00,
2013-06-05 08:00:00,66.3,55.0,30.16,North,360,4.0,5.0,67,0.00,,,0.00,Wunderground v.1.15,2013-06-05 12:00:00,
2013-06-05 08:06:00,66.7,55.0,30.16,North,360,4.0,5.0,66,0.00,,,0.00,Wunderground v.1.15,2013-06-05 12:06:00,
2013-06-05 08:10:00,66.9,55.6,30.15,North,360,4.0,4.0,67,0.00,,,0.00,Wunderground v.1.15,2013-06-05 12:10:00,
2013-06-05 08:14:00,67.4,56.1,30.16,North,360,4.0,5.0,67,0.00,,,0.00,Wunderground v.1.15,2013-06-05 12:14:00,
2013-06-05 08:16:00,67.7,55.9,30.16,North,360,4.0,5.0,66,0.00,,,0.00,Wunderground v.1.15,2013-06-05 12:16:00,
2013-06-05 08:20:00,68.1,56.7,30.16,North,360,4.0,4.0,67,0.00,,,0.00,Wunderground v.1.15,2013-06-05 12:20:00,
2013-06-05 08:22:00,68.3,56.5,30.16,North,360,4.0,5.0,66,0.00,,,0.00,Wunderground v.1.15,2013-06-05 12:22:00,
2013-06-05 08:24:00,68.2,56.8,30.16,North,360,4.0,5.0,67,0.00,,,0.00,Wunderground v.1.15,2013-06-05 12:24:00,
2013-06-05 08:26:00,68.1,56.7,30.16,North,360,4.0,5.0,67,0.00,,,0.00,Wunderground v.1.15,2013-06-05 12:26:00,
2013-06-05 08:28:00,68.0,56.6,30.16,North,360,4.0,5.0,67,0.00,,,0.00,Wunderground v.1.15,2013-06-05 12:28:00,
2013-06-05 08:30:00,67.9,56.9,30.16,North,360,4.0,4.0,68,0.00,,,0.00,Wunderground v.1.15,2013-06-05 12:30:00,
2013-06-05 08:34:00,68.2,57.2,30.16,North,360,5.0,6.0,68,0.00,,,0.00,Wunderground v.1.15,2013-06-05 12:34:00,
2013-06-05 08:36:00,68.3,57.3,30.16,North,360,5.0,6.0,68,0.00,,,0.00,Wunderground v.1.15,2013-06-05 12:36:00,
2013-06-05 08:38:00,68.6,57.6,30.16,North,360,5.0,7.0,68,0.00,,,0.00,Wunderground v.1.15,2013-06-05 12:38:00,
2013-06-05 08:40:00,68.9,57.5,30.16,North,360,5.0,7.0,67,0.00,,,0.00,Wunderground v.1.15,2013-06-05 12:40:00,
2013-06-05 08:42:00,68.9,57.5,30.16,North,360,5.0,7.0,67,0.00,,,0.00,Wunderground v.1.15,2013-06-05 12:42:00,
2013-06-05 08:46:00,68.8,57.8,30.16,North,360,6.0,7.0,68,0.00,,,0.00,Wunderground v.1.15,2013-06-05 12:46:00,
2013-06-05 08:48:00,68.8,57.8,30.16,North,360,6.0,7.0,68,0.00,,,0.00,Wunderground v.1.15,2013-06-05 12:48:00,
2013-06-05 08:50:00,68.8,57.8,30.16,North,360,6.0,6.0,68,0.00,,,0.00,Wunderground v.1.15,2013-06-05 12:50:00,
2013-06-05 08:54:00,68.7,58.1,30.16,North,360,5.0,6.0,69,0.00,,,0.00,Wunderground v.1.15,2013-06-05 12:54:00,
2013-06-05 09:00:00,69.1,58.1,30.16,North,360,4.0,4.0,68,0.00,,,0.00,Wunderground v.1.15,2013-06-05 13:00:00,
2013-06-05 09:02:00,69.4,58.4,30.16,North,360,4.0,5.0,68,0.00,,,0.00,Wunderground v.1.15,2013-06-05 13:02:00,
2013-06-05 09:06:00,69.8,58.3,30.15,North,360,4.0,7.0,67,0.00,,,0.00,Wunderground v.1.15,2013-06-05 13:06:00,
2013-06-05 09:12:00,70.1,58.2,30.15,North,360,5.0,7.0,66,0.00,,,0.00,Wunderground v.1.15,2013-06-05 13:12:00,
2013-06-05 09:14:00,70.3,58.4,30.15,North,360,4.0,7.0,66,0.00,,,0.00,Wunderground v.1.15,2013-06-05 13:14:00,
2013-06-05 09:16:00,70.3,58.0,30.15,North,360,5.0,7.0,65,0.00,,,0.00,Wunderground v.1.15,2013-06-05 13:16:00,
2013-06-05 09:18:00,70.4,58.1,30.16,North,360,5.0,7.0,65,0.00,,,0.00,Wunderground v.1.15,2013-06-05 13:18:00,
2013-06-05 09:20:00,70.6,58.3,30.16,North,360,4.0,4.0,65,0.00,,,0.00,Wunderground v.1.15,2013-06-05 13:20:00,
2013-06-05 09:24:00,70.7,58.4,30.16,North,360,4.0,7.0,65,0.00,,,0.00,Wunderground v.1.15,2013-06-05 13:24:00,
2013-06-05 09:26:00,70.9,58.5,30.15,North,360,4.0,7.0,65,0.00,,,0.00,Wunderground v.1.15,2013-06-05 13:26:00,
2013-06-05 09:32:00,70.9,58.1,30.16,North,360,4.0,5.0,64,0.00,,,0.00,Wunderground v.1.15,2013-06-05 13:32:00,
2013-06-05 09:34:00,70.8,58.0,30.16,North,360,4.0,6.0,64,0.00,,,0.00,Wunderground v.1.15,2013-06-05 13:34:00,
2013-06-05 09:36:00,70.8,57.6,30.16,North,360,4.0,6.0,63,0.00,,,0.00,Wunderground v.1.15,2013-06-05 13:36:00,
2013-06-05 09:40:00,70.9,58.1,30.16,North,360,4.0,4.0,64,0.00,,,0.00,Wunderground v.1.15,2013-06-05 13:40:00,
2013-06-05 09:44:00,71.0,57.3,30.16,North,360,4.0,6.0,62,0.00,,,0.00,Wunderground v.1.15,2013-06-05 13:44:00,
2013-06-05 09:48:00,71.1,57.0,30.16,North,360,5.0,6.0,61,0.00,,,0.00,Wunderground v.1.15,2013-06-05 13:48:00,
2013-06-05 09:52:00,71.3,56.2,30.16,North,360,5.0,5.0,59,0.00,,,0.00,Wunderground v.1.15,2013-06-05 13:52:00,
2013-06-05 09:54:00,71.5,55.5,30.16,North,360,5.0,5.0,57,0.00,,,0.00,Wunderground v.1.15,2013-06-05 13:54:00,
2013-06-05 09:58:00,71.8,57.2,30.15,North,360,4.0,5.0,60,0.00,,,0.00,Wunderground v.1.15,2013-06-05 13:58:00,
2013-06-05 10:00:00,71.9,57.3,30.15,North,360,4.0,4.0,60,0.00,,,0.00,Wunderground v.1.15,2013-06-05 14:00:00,
2013-06-05 10:04:00,72.2,57.1,30.15,North,360,4.0,5.0,59,0.00,,,0.00,Wunderground v.1.15,2013-06-05 14:04:00,
2013-06-05 10:06:00,71.9,56.8,30.15,North,360,5.0,5.0,59,0.00,,,0.00,Wunderground v.1.15,2013-06-05 14:06:00,
2013-06-05 10:08:00,71.8,57.2,30.15,North,360,4.0,5.0,60,0.00,,,0.00,Wunderground v.1.15,2013-06-05 14:08:00,
2013-06-05 10:10:00,71.9,57.3,30.15,North,360,5.0,5.0,60,0.00,,,0.00,Wunderground v.1.15,2013-06-05 14:10:00,
2013-06-05 10:12:00,71.9,57.3,30.15,North,360,4.0,5.0,60,0.00,,,0.00,Wunderground v.1.15,2013-06-05 14:12:00,
2013-06-05 10:14:00,72.1,57.0,30.15,North,360,3.0,5.0,59,0.00,,,0.00,Wunderground v.1.15,2013-06-05 14:14:00,
2013-06-05 10:16:00,72.2,56.6,30.15,North,360,3.0,5.0,58,0.00,,,0.00,Wunderground v.1.15,2013-06-05 14:16:00,
2013-06-05 10:18:00,72.3,56.7,30.15,North,360,2.0,5.0,58,0.00,,,0.00,Wunderground v.1.15,2013-06-05 14:18:00,
2013-06-05 10:20:00,72.3,57.6,30.15,North,360,2.0,3.0,60,0.00,,,0.00,Wunderground v.1.15,2013-06-05 14:20:00,
2013-06-05 10:22:00,72.3,57.6,30.15,North,360,2.0,7.0,60,0.00,,,0.00,Wunderground v.1.15,2013-06-05 14:22:00,
2013-06-05 10:28:00,72.6,57.9,30.14,North,360,4.0,7.0,60,0.00,,,0.00,Wunderground v.1.15,2013-06-05 14:28:00,
2013-06-05 10:30:00,72.3,57.2,30.14,North,360,4.0,4.0,59,0.00,,,0.00,Wunderground v.1.15,2013-06-05 14:30:00,
2013-06-05 10:32:00,72.3,57.6,30.14,North,360,4.0,7.0,60,0.00,,,0.00,Wunderground v.1.15,2013-06-05 14:32:00,
2013-06-05 10:36:00,72.5,57.4,30.14,North,360,4.0,7.0,59,0.00,,,0.00,Wunderground v.1.15,2013-06-05 14:36:00,
2013-06-05 10:38:00,72.8,57.6,30.14,North,360,4.0,7.0,59,0.00,,,0.00,Wunderground v.1.15,2013-06-05 14:38:00,
2013-06-05 10:40:00,73.1,57.4,30.14,North,360,4.0,7.0,58,0.00,,,0.00,Wunderground v.1.15,2013-06-05 14:40:00,
2013-06-05 10:44:00,72.9,56.8,30.14,North,360,5.0,9.0,57,0.00,,,0.00,Wunderground v.1.15,2013-06-05 14:44:00,
2013-06-05 10:46:00,72.7,56.6,30.14,North,360,5.0,9.0,57,0.00,,,0.00,Wunderground v.1.15,2013-06-05 14:46:00,
2013-06-05 10:48:00,72.8,57.2,30.13,North,360,5.0,9.0,58,0.00,,,0.00,Wunderground v.1.15,2013-06-05 14:48:00,
2013-06-05 10:50:00,73.1,57.0,30.14,North,360,5.0,5.0,57,0.00,,,0.00,Wunderground v.1.15,2013-06-05 14:50:00,
2013-06-05 10:52:00,73.3,57.1,30.14,North,360,4.0,5.0,57,0.00,,,0.00,Wunderground v.1.15,2013-06-05 14:52:00,
2013-06-05 10:56:00,73.2,56.6,30.13,North,360,3.0,5.0,56,0.00,,,0.00,Wunderground v.1.15,2013-06-05 14:56:00,
2013-06-05 10:58:00,73.1,56.5,30.13,North,360,4.0,5.0,56,0.00,,,0.00,Wunderground v.1.15,2013-06-05 14:58:00,
2013-06-05 11:00:00,73.1,57.0,30.13,North,360,4.0,8.0,57,0.00,,,0.00,Wunderground v.1.15,2013-06-05 15:00:00,
2013-06-05 11:02:00,73.4,57.2,30.13,North,360,4.0,8.0,57,0.00,,,0.00,Wunderground v.1.15,2013-06-05 15:02:00,
2013-06-05 11:06:00,73.7,57.5,30.13,North,360,5.0,10.0,57,0.00,,,0.00,Wunderground v.1.15,2013-06-05 15:06:00,
2013-06-05 11:08:00,73.9,57.7,30.13,North,360,5.0,10.0,57,0.00,,,0.00,Wunderground v.1.15,2013-06-05 15:08:00,
2013-06-05 11:10:00,73.9,57.7,30.13,North,360,4.0,6.0,57,0.00,,,0.00,Wunderground v.1.15,2013-06-05 15:10:00,
2013-06-05 11:14:00,74.4,55.1,30.13,North,360,4.0,6.0,51,0.00,,,0.00,Wunderground v.1.15,2013-06-05 15:14:00,
2013-06-05 11:16:00,74.2,55.4,30.13,North,360,4.0,6.0,52,0.00,,,0.00,Wunderground v.1.15,2013-06-05 15:16:00,
2013-06-05 11:20:00,74.3,56.1,30.12,North,360,4.0,4.0,53,0.00,,,0.00,Wunderground v.1.15,2013-06-05 15:20:00,
2013-06-05 11:22:00,74.4,56.2,30.12,North,360,4.0,9.0,53,0.00,,,0.00,Wunderground v.1.15,2013-06-05 15:22:00,
2013-06-05 11:26:00,74.5,56.2,30.12,North,360,4.0,9.0,53,0.00,,,0.00,Wunderground v.1.15,2013-06-05 15:26:00,
2013-06-05 11:28:00,74.6,56.3,30.12,North,360,5.0,9.0,53,0.00,,,0.00,Wunderground v.1.15,2013-06-05 15:28:00,
2013-06-05 11:32:00,74.6,56.3,30.12,North,360,5.0,6.0,53,0.00,,,0.00,Wunderground v.1.15,2013-06-05 15:32:00,
2013-06-05 11:34:00,75.0,56.7,30.12,North,360,5.0,6.0,53,0.00,,,0.00,Wunderground v.1.15,2013-06-05 15:34:00,
2013-06-05 11:36:00,75.3,55.9,30.13,North,360,5.0,6.0,51,0.00,,,0.00,Wunderground v.1.15,2013-06-05 15:36:00,
2013-06-05 11:38:00,75.3,55.9,30.13,North,360,5.0,9.0,51,0.00,,,0.00,Wunderground v.1.15,2013-06-05 15:38:00,
2013-06-05 11:42:00,75.0,55.6,30.12,North,360,7.0,8.0,51,0.00,,,0.00,Wunderground v.1.15,2013-06-05 15:42:00,
2013-06-05 11:44:00,74.9,56.1,30.12,North,360,7.0,10.0,52,0.00,,,0.00,Wunderground v.1.15,2013-06-05 15:44:00,
2013-06-05 11:46:00,74.7,55.4,30.12,North,360,7.0,10.0,51,0.00,,,0.00,Wunderground v.1.15,2013-06-05 15:46:00,
2013-06-05 11:48:00,74.5,55.7,30.12,North,360,6.0,10.0,52,0.00,,,0.00,Wunderground v.1.15,2013-06-05 15:48:00,
2013-06-05 11:50:00,74.7,55.9,30.12,North,360,6.0,6.0,52,0.00,,,0.00,Wunderground v.1.15,2013-06-05 15:50:00,
2013-06-05 11:54:00,75.1,56.3,30.12,North,360,6.0,11.0,52,0.00,,,0.00,Wunderground v.1.15,2013-06-05 15:54:00,
2013-06-05 11:56:00,75.2,55.8,30.12,North,360,5.0,11.0,51,0.00,,,0.00,Wunderground v.1.15,2013-06-05 15:56:00,
2013-06-05 11:58:00,75.3,55.4,30.12,North,360,6.0,12.0,50,0.00,,,0.00,Wunderground v.1.15,2013-06-05 15:58:00,
2013-06-05 12:00:00,75.0,55.1,30.12,North,360,7.0,11.0,50,0.00,,,0.00,Wunderground v.1.15,2013-06-05 16:00:00,
2013-06-05 12:02:00,74.9,55.0,30.12,North,360,8.0,11.0,50,0.00,,,0.00,Wunderground v.1.15,2013-06-05 16:02:00,
2013-06-05 12:06:00,75.0,55.1,30.12,North,360,8.0,11.0,50,0.00,,,0.00,Wunderground v.1.15,2013-06-05 16:06:00,
2013-06-05 12:08:00,75.0,54.0,30.12,North,360,8.0,11.0,48,0.00,,,0.00,Wunderground v.1.15,2013-06-05 16:08:00,
2013-06-05 12:10:00,74.9,53.9,30.12,North,360,7.0,10.0,48,0.00,,,0.00,Wunderground v.1.15,2013-06-05 16:10:00,
2013-06-05 12:12:00,74.8,53.8,30.12,North,360,7.0,10.0,48,0.00,,,0.00,Wunderground v.1.15,2013-06-05 16:12:00,
2013-06-05 12:16:00,75.0,54.0,30.12,North,360,6.0,10.0,48,0.00,,,0.00,Wunderground v.1.15,2013-06-05 16:16:00,
2013-06-05 12:20:00,75.3,54.3,30.12,North,360,6.0,7.0,48,0.00,,,0.00,Wunderground v.1.15,2013-06-05 16:20:00,
2013-06-05 12:22:00,75.0,54.0,30.12,North,360,6.0,7.0,48,0.00,,,0.00,Wunderground v.1.15,2013-06-05 16:22:00,
2013-06-05 12:26:00,75.0,54.0,30.12,North,360,5.0,7.0,48,0.00,,,0.00,Wunderground v.1.15,2013-06-05 16:26:00,
2013-06-05 12:30:00,75.4,54.3,30.11,North,360,5.0,5.0,48,0.00,,,0.00,Wunderground v.1.15,2013-06-05 16:30:00,
2013-06-05 12:34:00,75.7,54.0,30.11,North,360,7.0,12.0,47,0.00,,,0.00,Wunderground v.1.15,2013-06-05 16:34:00,
2013-06-05 12:36:00,75.5,53.3,30.11,North,360,8.0,12.0,46,0.00,,,0.00,Wunderground v.1.15,2013-06-05 16:36:00,
2013-06-05 12:38:00,75.3,53.1,30.11,North,360,9.0,12.0,46,0.00,,,0.00,Wunderground v.1.15,2013-06-05 16:38:00,
2013-06-05 12:40:00,75.3,53.1,30.11,North,360,8.0,9.0,46,0.00,,,0.00,Wunderground v.1.15,2013-06-05 16:40:00,
2013-06-05 12:46:00,76.1,55.0,30.11,North,360,6.0,9.0,48,0.00,,,0.00,Wunderground v.1.15,2013-06-05 16:46:00,
2013-06-05 12:48:00,76.1,55.0,30.11,North,360,6.0,9.0,48,0.00,,,0.00,Wunderground v.1.15,2013-06-05 16:48:00,
2013-06-05 12:52:00,76.3,54.6,30.11,North,360,6.0,10.0,47,0.00,,,0.00,Wunderground v.1.15,2013-06-05 16:52:00,
2013-06-05 12:54:00,76.2,55.1,30.11,North,360,6.0,10.0,48,0.00,,,0.00,Wunderground v.1.15,2013-06-05 16:54:00,
2013-06-05 12:58:00,76.0,53.7,30.11,North,360,7.0,13.0,46,0.00,,,0.00,Wunderground v.1.15,2013-06-05 16:58:00,
2013-06-05 13:00:00,75.9,54.2,30.11,North,360,7.0,9.0,47,0.00,,,0.00,Wunderground v.1.15,2013-06-05 17:00:00,
2013-06-05 13:02:00,75.9,54.2,30.11,North,360,7.0,10.0,47,0.00,,,0.00,Wunderground v.1.15,2013-06-05 17:02:00,
2013-06-05 13:06:00,76.1,54.4,30.11,North,360,7.0,10.0,47,0.00,,,0.00,Wunderground v.1.15,2013-06-05 17:06:00,
2013-06-05 13:08:00,76.3,54.6,30.11,North,360,6.0,10.0,47,0.00,,,0.00,Wunderground v.1.15,2013-06-05 17:08:00,
2013-06-05 13:14:00,76.0,54.9,30.10,North,360,8.0,11.0,48,0.00,,,0.00,Wunderground v.1.15,2013-06-05 17:14:00,
2013-06-05 13:16:00,76.2,55.1,30.10,North,360,8.0,11.0,48,0.00,,,0.00,Wunderground v.1.15,2013-06-05 17:16:00,
2013-06-05 13:18:00,76.4,54.7,30.10,North,360,8.0,11.0,47,0.00,,,0.00,Wunderground v.1.15,2013-06-05 17:18:00,
2013-06-05 13:20:00,76.6,54.3,30.09,North,360,7.0,7.0,46,0.00,,,0.00,Wunderground v.1.15,2013-06-05 17:20:00,
2013-06-05 13:24:00,76.2,53.9,30.10,North,360,8.0,11.0,46,0.00,,,0.00,Wunderground v.1.15,2013-06-05 17:24:00,
2013-06-05 13:26:00,76.2,53.9,30.09,North,360,8.0,11.0,46,0.00,,,0.00,Wunderground v.1.15,2013-06-05 17:26:00,
2013-06-05 13:28:00,76.6,53.7,30.10,North,360,8.0,11.0,45,0.00,,,0.00,Wunderground v.1.15,2013-06-05 17:28:00,
2013-06-05 13:32:00,76.8,54.5,30.09,North,360,7.0,10.0,46,0.00,,,0.00,Wunderground v.1.15,2013-06-05 17:32:00,
2013-06-05 13:34:00,76.7,54.4,30.09,North,360,7.0,17.0,46,0.00,,,0.00,Wunderground v.1.15,2013-06-05 17:34:00,
2013-06-05 13:40:00,76.3,54.0,30.09,North,360,9.0,12.0,46,0.00,,,0.00,Wunderground v.1.15,2013-06-05 17:40:00,
2013-06-05 13:42:00,76.4,54.1,30.09,North,360,9.0,12.0,46,0.00,,,0.00,Wunderground v.1.15,2013-06-05 17:42:00,
2013-06-05 13:44:00,76.5,54.2,30.09,North,360,9.0,12.0,46,0.00,,,0.00,Wunderground v.1.15,2013-06-05 17:44:00,
2013-06-05 13:46:00,76.6,54.3,30.09,North,360,9.0,12.0,46,0.00,,,0.00,Wunderground v.1.15,2013-06-05 17:46:00,
2013-06-05 13:48:00,76.5,53.6,30.09,North,360,8.0,12.0,45,0.00,,,0.00,Wunderground v.1.15,2013-06-05 17:48:00,
2013-06-05 13:50:00,76.7,54.4,30.09,North,360,7.0,7.0,46,0.00,,,0.00,Wunderground v.1.15,2013-06-05 17:50:00,
2013-06-05 13:54:00,76.9,53.9,30.09,North,360,5.0,7.0,45,0.00,,,0.00,Wunderground v.1.15,2013-06-05 17:54:00,
2013-06-05 13:56:00,76.9,54.5,30.09,North,360,4.0,7.0,46,0.00,,,0.00,Wunderground v.1.15,2013-06-05 17:56:00,
2013-06-05 13:58:00,77.0,54.6,30.09,North,360,4.0,9.0,46,0.00,,,0.00,Wunderground v.1.15,2013-06-05 17:58:00,
2013-06-05 14:02:00,77.5,55.1,30.09,North,360,6.0,11.0,46,0.00,,,0.00,Wunderground v.1.15,2013-06-05 18:02:00,
2013-06-05 14:04:00,77.5,54.5,30.09,North,360,6.0,11.0,45,0.00,,,0.00,Wunderground v.1.15,2013-06-05 18:04:00,
2013-06-05 14:08:00,77.1,54.7,30.09,North,360,8.0,11.0,46,0.00,,,0.00,Wunderground v.1.15,2013-06-05 18:08:00,
2013-06-05 14:10:00,76.9,54.5,30.09,North,360,7.0,7.0,46,0.00,,,0.00,Wunderground v.1.15,2013-06-05 18:10:00,
2013-06-05 14:12:00,76.9,54.5,30.09,North,360,6.0,7.0,46,0.00,,,0.00,Wunderground v.1.15,2013-06-05 18:12:00,
2013-06-05 14:14:00,77.0,54.6,30.09,North,360,5.0,7.0,46,0.00,,,0.00,Wunderground v.1.15,2013-06-05 18:14:00,
2013-06-05 14:18:00,77.2,54.8,30.09,North,360,5.0,7.0,46,0.00,,,0.00,Wunderground v.1.15,2013-06-05 18:18:00,
2013-06-05 14:20:00,77.1,54.7,30.08,North,360,5.0,10.0,46,0.00,,,0.00,Wunderground v.1.15,2013-06-05 18:20:00,
2013-06-05 14:22:00,77.3,54.9,30.08,North,360,5.0,10.0,46,0.00,,,0.00,Wunderground v.1.15,2013-06-05 18:22:00,
2013-06-05 14:26:00,77.2,54.8,30.08,North,360,7.0,10.0,46,0.00,,,0.00,Wunderground v.1.15,2013-06-05 18:26:00,
2013-06-05 14:28:00,77.2,54.8,30.08,North,360,6.0,10.0,46,0.00,,,0.00,Wunderground v.1.15,2013-06-05 18:28:00,
2013-06-05 14:32:00,77.1,54.1,30.08,North,360,5.0,6.0,45,0.00,,,0.00,Wunderground v.1.15,2013-06-05 18:32:00,
2013-06-05 14:36:00,77.5,54.5,30.08,North,360,3.0,6.0,45,0.00,,,0.00,Wunderground v.1.15,2013-06-05 18:36:00,
2013-06-05 14:38:00,77.5,55.1,30.08,North,360,3.0,6.0,46,0.00,,,0.00,Wunderground v.1.15,2013-06-05 18:38:00,
2013-06-05 14:40:00,77.6,55.2,30.08,North,360,3.0,4.0,46,0.00,,,0.00,Wunderground v.1.15,2013-06-05 18:40:00,
2013-06-05 14:44:00,77.6,55.2,30.08,North,360,5.0,12.0,46,0.00,,,0.00,Wunderground v.1.15,2013-06-05 18:44:00,
2013-06-05 14:46:00,77.5,55.1,30.08,North,360,6.0,12.0,46,0.00,,,0.00,Wunderground v.1.15,2013-06-05 18:46:00,
2013-06-05 14:50:00,77.4,55.6,30.08,North,360,7.0,8.0,47,0.00,,,0.00,Wunderground v.1.15,2013-06-05 18:50:00,
2013-06-05 14:52:00,77.6,55.8,30.07,North,360,7.0,12.0,47,0.00,,,0.00,Wunderground v.1.15,2013-06-05 18:52:00,
2013-06-05 14:54:00,77.6,55.8,30.07,North,360,7.0,12.0,47,0.00,,,0.00,Wunderground v.1.15,2013-06-05 18:54:00,
2013-06-05 14:56:00,77.5,55.7,30.07,North,360,7.0,12.0,47,0.00,,,0.00,Wunderground v.1.15,2013-06-05 18:56:00,
2013-06-05 15:00:00,77.5,55.7,30.07,North,360,7.0,7.0,47,0.00,,,0.00,Wunderground v.1.15,2013-06-05 19:00:00,
2013-06-05 15:04:00,77.5,56.3,30.07,North,360,7.0,11.0,48,0.00,,,0.00,Wunderground v.1.15,2013-06-05 19:04:00,
2013-06-05 15:06:00,77.3,56.1,30.07,North,360,7.0,11.0,48,0.00,,,0.00,Wunderground v.1.15,2013-06-05 19:06:00,
2013-06-05 15:10:00,77.1,56.5,30.07,North,360,8.0,8.0,49,0.00,,,0.00,Wunderground v.1.15,2013-06-05 19:10:00,
2013-06-05 15:12:00,77.1,56.5,30.07,North,360,8.0,8.0,49,0.00,,,0.00,Wunderground v.1.15,2013-06-05 19:12:00,
2013-06-05 15:16:00,77.5,56.8,30.07,North,360,6.0,13.0,49,0.00,,,0.00,Wunderground v.1.15,2013-06-05 19:16:00,
2013-06-05 15:18:00,77.7,56.4,30.07,North,360,7.0,13.0,48,0.00,,,0.00,Wunderground v.1.15,2013-06-05 19:18:00,
2013-06-05 15:22:00,77.8,56.5,30.07,North,360,7.0,9.0,48,0.00,,,0.00,Wunderground v.1.15,2013-06-05 19:22:00,
2013-06-05 15:24:00,77.9,56.6,30.07,North,360,7.0,9.0,48,0.00,,,0.00,Wunderground v.1.15,2013-06-05 19:24:00,
2013-06-05 15:28:00,78.2,56.3,30.07,North,360,7.0,9.0,47,0.00,,,0.00,Wunderground v.1.15,2013-06-05 19:28:00,
2013-06-05 15:30:00,78.4,57.1,30.07,North,360,6.0,11.0,48,0.00,,,0.00,Wunderground v.1.15,2013-06-05 19:30:00,
2013-06-05 15:32:00,78.3,56.4,30.07,North,360,7.0,11.0,47,0.00,,,0.00,Wunderground v.1.15,2013-06-05 19:32:00,
2013-06-05 15:34:00,78.0,56.7,30.07,North,360,6.0,11.0,48,0.00,,,0.00,Wunderground v.1.15,2013-06-05 19:34:00,
2013-06-05 15:36:00,77.9,56.6,30.07,North,360,5.0,11.0,48,0.00,,,0.00,Wunderground v.1.15,2013-06-05 19:36:00,
2013-06-05 15:38:00,77.8,57.1,30.07,North,360,5.0,11.0,49,0.00,,,0.00,Wunderground v.1.15,2013-06-05 19:38:00,
2013-06-05 15:42:00,77.7,57.6,30.07,North,360,7.0,13.0,50,0.00,,,0.00,Wunderground v.1.15,2013-06-05 19:42:00,
2013-06-05 15:44:00,77.8,57.7,30.07,North,360,7.0,13.0,50,0.00,,,0.00,Wunderground v.1.15,2013-06-05 19:44:00,
2013-06-05 15:50:00,78.0,57.3,30.07,North,360,7.0,7.0,49,0.00,,,0.00,Wunderground v.1.15,2013-06-05 19:50:00,
2013-06-05 15:52:00,78.0,57.3,30.06,North,360,6.0,7.0,49,0.00,,,0.00,Wunderground v.1.15,2013-06-05 19:52:00,
2013-06-05 15:56:00,78.2,57.5,30.07,North,360,5.0,9.0,49,0.00,,,0.00,Wunderground v.1.15,2013-06-05 19:56:00,
2013-06-05 15:58:00,78.1,57.9,30.07,North,360,5.0,9.0,50,0.00,,,0.00,Wunderground v.1.15,2013-06-05 19:58:00,
2013-06-05 16:02:00,78.1,57.9,30.06,North,360,4.0,7.0,50,0.00,,,0.00,Wunderground v.1.15,2013-06-05 20:02:00,
2013-06-05 16:04:00,78.0,57.9,30.06,North,360,6.0,7.0,50,0.00,,,0.00,Wunderground v.1.15,2013-06-05 20:04:00,
2013-06-05 16:06:00,77.8,57.7,30.07,North,360,6.0,7.0,50,0.00,,,0.00,Wunderground v.1.15,2013-06-05 20:06:00,
2013-06-05 16:08:00,77.7,57.6,30.07,North,360,6.0,7.0,50,0.00,,,0.00,Wunderground v.1.15,2013-06-05 20:08:00,
2013-06-05 16:10:00,77.8,57.7,30.07,North,360,6.0,7.0,50,0.00,,,0.00,Wunderground v.1.15,2013-06-05 20:10:00,
2013-06-05 16:12:00,77.8,57.7,30.07,North,360,6.0,7.0,50,0.00,,,0.00,Wunderground v.1.15,2013-06-05 20:12:00,
2013-06-05 16:14:00,77.9,58.3,30.07,North,360,5.0,10.0,51,0.00,,,0.00,Wunderground v.1.15,2013-06-05 20:14:00,
2013-06-05 16:18:00,78.1,59.0,30.06,North,360,5.0,13.0,52,0.00,,,0.00,Wunderground v.1.15,2013-06-05 20:18:00,
2013-06-05 16:20:00,78.1,58.5,30.06,North,360,6.0,12.0,51,0.00,,,0.00,Wunderground v.1.15,2013-06-05 20:20:00,
2013-06-05 16:22:00,77.9,58.9,30.06,North,360,7.0,12.0,52,0.00,,,0.00,Wunderground v.1.15,2013-06-05 20:22:00,
2013-06-05 16:24:00,77.6,58.6,30.06,North,360,8.0,12.0,52,0.00,,,0.00,Wunderground v.1.15,2013-06-05 20:24:00,
2013-06-05 16:26:00,77.5,59.0,30.06,North,360,8.0,12.0,53,0.00,,,0.00,Wunderground v.1.15,2013-06-05 20:26:00,
2013-06-05 16:30:00,77.4,58.9,30.06,North,360,9.0,12.0,53,0.00,,,0.00,Wunderground v.1.15,2013-06-05 20:30:00,
2013-06-05 16:34:00,77.4,58.9,30.06,North,360,9.0,12.0,53,0.00,,,0.00,Wunderground v.1.15,2013-06-05 20:34:00,
2013-06-05 16:36:00,77.4,58.9,30.06,North,360,9.0,12.0,53,0.00,,,0.00,Wunderground v.1.15,2013-06-05 20:36:00,
2013-06-05 16:40:00,77.3,58.8,30.06,North,360,8.0,8.0,53,0.00,,,0.00,Wunderground v.1.15,2013-06-05 20:40:00,
2013-06-05 16:44:00,77.5,59.0,30.07,North,360,6.0,10.0,53,0.00,,,0.00,Wunderground v.1.15,2013-06-05 20:44:00,
2013-06-05 16:46:00,77.6,59.1,30.07,North,360,6.0,10.0,53,0.00,,,0.00,Wunderground v.1.15,2013-06-05 20:46:00,
2013-06-05 16:48:00,77.8,59.3,30.07,North,360,6.0,10.0,53,0.00,,,0.00,Wunderground v.1.15,2013-06-05 20:48:00,
2013-06-05 16:50:00,77.9,58.9,30.07,North,360,5.0,7.0,52,0.00,,,0.00,Wunderground v.1.15,2013-06-05 20:50:00,
2013-06-05 16:52:00,77.9,58.3,30.07,North,360,6.0,7.0,51,0.00,,,0.00,Wunderground v.1.15,2013-06-05 20:52:00,
2013-06-05 16:56:00,77.5,57.9,30.07,North,360,7.0,11.0,51,0.00,,,0.00,Wunderground v.1.15,2013-06-05 20:56:00,
2013-06-05 17:00:00,77.4,57.9,30.06,North,360,8.0,8.0,51,0.00,,,0.00,Wunderground v.1.15,2013-06-05 21:00:00,
2013-06-05 17:02:00,77.4,58.4,30.06,North,360,7.0,11.0,52,0.00,,,0.00,Wunderground v.1.15,2013-06-05 21:02:00,
2013-06-05 17:04:00,77.5,58.5,30.06,North,360,8.0,11.0,52,0.00,,,0.00,Wunderground v.1.15,2013-06-05 21:04:00,
2013-06-05 17:06:00,77.5,57.9,30.06,North,360,8.0,11.0,51,0.00,,,0.00,Wunderground v.1.15,2013-06-05 21:06:00,
2013-06-05 17:08:00,77.6,58.0,30.06,North,360,8.0,11.0,51,0.00,,,0.00,Wunderground v.1.15,2013-06-05 21:08:00,
2013-06-05 17:10:00,77.7,58.1,30.06,North,360,7.0,7.0,51,0.00,,,0.00,Wunderground v.1.15,2013-06-05 21:10:00,
2013-06-05 17:12:00,77.8,57.7,30.06,North,360,7.0,12.0,50,0.00,,,0.00,Wunderground v.1.15,2013-06-05 21:12:00,
2013-06-05 17:14:00,77.7,57.6,30.06,North,360,8.0,12.0,50,0.00,,,0.00,Wunderground v.1.15,2013-06-05 21:14:00,
2013-06-05 17:16:00,77.6,58.0,30.06,North,360,7.0,12.0,51,0.00,,,0.00,Wunderground v.1.15,2013-06-05 21:16:00,
2013-06-05 17:18:00,77.6,58.0,30.06,North,360,7.0,12.0,51,0.00,,,0.00,Wunderground v.1.15,2013-06-05 21:18:00,
2013-06-05 17:22:00,78.0,58.4,30.06,North,360,8.0,9.0,51,0.00,,,0.00,Wunderground v.1.15,2013-06-05 21:22:00,
2013-06-05 17:24:00,78.0,58.4,30.06,North,360,7.0,9.0,51,0.00,,,0.00,Wunderground v.1.15,2013-06-05 21:24:00,
2013-06-05 17:26:00,78.0,57.9,30.06,North,360,6.0,9.0,50,0.00,,,0.00,Wunderground v.1.15,2013-06-05 21:26:00,
2013-06-05 17:28:00,78.0,58.4,30.06,North,360,6.0,9.0,51,0.00,,,0.00,Wunderground v.1.15,2013-06-05 21:28:00,
2013-06-05 17:30:00,78.1,57.9,30.06,North,360,5.0,5.0,50,0.00,,,0.00,Wunderground v.1.15,2013-06-05 21:30:00,
2013-06-05 17:34:00,78.5,58.3,30.06,North,360,4.0,6.0,50,0.00,,,0.00,Wunderground v.1.15,2013-06-05 21:34:00,
2013-06-05 17:36:00,78.6,57.8,30.06,North,360,4.0,6.0,49,0.00,,,0.00,Wunderground v.1.15,2013-06-05 21:36:00,
2013-06-05 17:38:00,78.6,57.8,30.06,North,360,5.0,6.0,49,0.00,,,0.00,Wunderground v.1.15,2013-06-05 21:38:00,
2013-06-05 17:42:00,78.4,58.2,30.06,North,360,6.0,8.0,50,0.00,,,0.00,Wunderground v.1.15,2013-06-05 21:42:00,
2013-06-05 17:44:00,78.4,58.2,30.06,North,360,7.0,8.0,50,0.00,,,0.00,Wunderground v.1.15,2013-06-05 21:44:00,
2013-06-05 17:46:00,78.3,58.1,30.06,North,360,6.0,8.0,50,0.00,,,0.00,Wunderground v.1.15,2013-06-05 21:46:00,
2013-06-05 17:48:00,78.3,57.6,30.06,North,360,6.0,8.0,49,0.00,,,0.00,Wunderground v.1.15,2013-06-05 21:48:00,
2013-06-05 17:50:00,78.1,57.9,30.06,North,360,6.0,6.0,50,0.00,,,0.00,Wunderground v.1.15,2013-06-05 21:50:00,
2013-06-05 17:52:00,78.0,57.9,30.06,North,360,6.0,9.0,50,0.00,,,0.00,Wunderground v.1.15,2013-06-05 21:52:00,
2013-06-05 17:54:00,77.8,57.7,30.06,North,360,6.0,9.0,50,0.00,,,0.00,Wunderground v.1.15,2013-06-05 21:54:00,
2013-06-05 17:58:00,77.7,57.6,30.06,North,360,8.0,9.0,50,0.00,,,0.00,Wunderground v.1.15,2013-06-05 21:58:00,
2013-06-05 18:00:00,77.6,57.5,30.06,North,360,8.0,8.0,50,0.00,,,0.00,Wunderground v.1.15,2013-06-05 22:00:00,
2013-06-05 18:04:00,77.6,57.5,30.06,North,360,8.0,9.0,50,0.00,,,0.00,Wunderground v.1.15,2013-06-05 22:04:00,
2013-06-05 18:06:00,77.4,57.3,30.05,North,360,7.0,9.0,50,0.00,,,0.00,Wunderground v.1.15,2013-06-05 22:06:00,
2013-06-05 18:08:00,77.5,57.9,30.05,North,360,6.0,9.0,51,0.00,,,0.00,Wunderground v.1.15,2013-06-05 22:08:00,
2013-06-05 18:12:00,77.8,57.1,30.05,North,360,5.0,12.0,49,0.00,,,0.00,Wunderground v.1.15,2013-06-05 22:12:00,
2013-06-05 18:14:00,77.7,57.6,30.05,North,360,6.0,12.0,50,0.00,,,0.00,Wunderground v.1.15,2013-06-05 22:14:00,
2013-06-05 18:18:00,77.8,57.1,30.05,North,360,7.0,12.0,49,0.00,,,0.00,Wunderground v.1.15,2013-06-05 22:18:00,
2013-06-05 18:20:00,77.8,57.1,30.05,North,360,7.0,7.0,49,0.00,,,0.00,Wunderground v.1.15,2013-06-05 22:20:00,
2013-06-05 18:26:00,78.2,57.5,30.05,North,360,6.0,7.0,49,0.00,,,0.00,Wunderground v.1.15,2013-06-05 22:26:00,
2013-06-05 18:28:00,78.2,56.9,30.05,North,360,5.0,7.0,48,0.00,,,0.00,Wunderground v.1.15,2013-06-05 22:28:00,
2013-06-05 18:30:00,78.2,56.9,30.05,North,360,5.0,7.0,48,0.00,,,0.00,Wunderground v.1.15,2013-06-05 22:30:00,
2013-06-05 18:32:00,78.2,56.9,30.05,North,360,5.0,7.0,48,0.00,,,0.00,Wunderground v.1.15,2013-06-05 22:32:00,
2013-06-05 18:34:00,78.2,56.9,30.05,North,360,5.0,7.0,48,0.00,,,0.00,Wunderground v.1.15,2013-06-05 22:34:00,
2013-06-05 18:38:00,78.2,56.9,30.05,North,360,5.0,7.0,48,0.00,,,0.00,Wunderground v.1.15,2013-06-05 22:38:00,
2013-06-05 18:42:00,78.1,56.8,30.05,North,360,5.0,5.0,48,0.00,,,0.00,Wunderground v.1.15,2013-06-05 22:42:00,
2013-06-05 18:44:00,78.1,56.8,30.05,North,360,5.0,5.0,48,0.00,,,0.00,Wunderground v.1.15,2013-06-05 22:44:00,
2013-06-05 18:46:00,78.0,56.7,30.05,North,360,5.0,5.0,48,0.00,,,0.00,Wunderground v.1.15,2013-06-05 22:46:00,
2013-06-05 18:48:00,78.0,56.7,30.05,North,360,4.0,5.0,48,0.00,,,0.00,Wunderground v.1.15,2013-06-05 22:48:00,
2013-06-05 18:52:00,78.0,56.7,30.05,North,360,4.0,4.0,48,0.00,,,0.00,Wunderground v.1.15,2013-06-05 22:52:00,
2013-06-05 18:54:00,78.0,56.7,30.05,North,360,4.0,9.0,48,0.00,,,0.00,Wunderground v.1.15,2013-06-05 22:54:00,
2013-06-05 18:56:00,78.1,56.8,30.05,North,360,4.0,9.0,48,0.00,,,0.00,Wunderground v.1.15,2013-06-05 22:56:00,
2013-06-05 18:58:00,78.1,56.8,30.05,North,360,5.0,9.0,48,0.00,,,0.00,Wunderground v.1.15,2013-06-05 22:58:00,
2013-06-05 19:02:00,77.9,56.6,30.04,North,360,6.0,8.0,48,0.00,,,0.00,Wunderground v.1.15,2013-06-05 23:02:00,
2013-06-05 19:04:00,77.9,56.6,30.04,North,360,7.0,12.0,48,0.00,,,0.00,Wunderground v.1.15,2013-06-05 23:04:00,
2013-06-05 19:08:00,77.5,56.3,30.04,North,360,8.0,13.0,48,0.00,,,0.00,Wunderground v.1.15,2013-06-05 23:08:00,
2013-06-05 19:14:00,77.3,56.1,30.04,North,360,10.0,14.0,48,0.00,,,0.00,Wunderground v.1.15,2013-06-05 23:14:00,
2013-06-05 19:16:00,77.1,55.9,30.05,North,360,10.0,14.0,48,0.00,,,0.00,Wunderground v.1.15,2013-06-05 23:16:00,
2013-06-05 19:18:00,77.0,56.4,30.05,North,360,10.0,14.0,49,0.00,,,0.00,Wunderground v.1.15,2013-06-05 23:18:00,
2013-06-05 19:20:00,77.1,56.5,30.05,North,360,9.0,9.0,49,0.00,,,0.00,Wunderground v.1.15,2013-06-05 23:20:00,
2013-06-05 19:24:00,77.2,56.0,30.04,North,360,8.0,10.0,48,0.00,,,0.00,Wunderground v.1.15,2013-06-05 23:24:00,
2013-06-05 19:26:00,77.3,56.1,30.04,North,360,8.0,11.0,48,0.00,,,0.00,Wunderground v.1.15,2013-06-05 23:26:00,
2013-06-05 19:28:00,77.1,55.9,30.04,North,360,8.0,11.0,48,0.00,,,0.00,Wunderground v.1.15,2013-06-05 23:28:00,
2013-06-05 19:32:00,77.1,56.5,30.04,North,360,8.0,11.0,49,0.00,,,0.00,Wunderground v.1.15,2013-06-05 23:32:00,
2013-06-05 19:34:00,77.0,55.8,30.04,North,360,9.0,11.0,48,0.00,,,0.00,Wunderground v.1.15,2013-06-05 23:34:00,
2013-06-05 19:38:00,76.9,56.3,30.04,North,360,8.0,11.0,49,0.00,,,0.00,Wunderground v.1.15,2013-06-05 23:38:00,
2013-06-05 19:42:00,77.1,56.5,30.04,North,360,8.0,8.0,49,0.00,,,0.00,Wunderground v.1.15,2013-06-05 23:42:00,
2013-06-05 19:44:00,77.0,55.8,30.04,North,360,8.0,13.0,48,0.00,,,0.00,Wunderground v.1.15,2013-06-05 23:44:00,
2013-06-05 19:46:00,76.8,56.2,30.04,North,360,8.0,13.0,49,0.00,,,0.00,Wunderground v.1.15,2013-06-05 23:46:00,
2013-06-05 19:50:00,76.6,56.0,30.04,North,360,9.0,9.0,49,0.00,,,0.00,Wunderground v.1.15,2013-06-05 23:50:00,
2013-06-05 19:52:00,76.7,56.1,30.04,North,360,8.0,9.0,49,0.00,,,0.00,Wunderground v.1.15,2013-06-05 23:52:00,
2013-06-05 19:56:00,76.6,56.0,30.04,North,360,7.0,9.0,49,0.00,,,0.00,Wunderground v.1.15,2013-06-05 23:56:00,
2013-06-05 19:58:00,76.6,56.0,30.04,North,360,7.0,9.0,49,0.00,,,0.00,Wunderground v.1.15,2013-06-05 23:58:00,
2013-06-05 20:00:00,76.6,56.0,30.04,North,360,7.0,14.0,49,0.00,,,0.00,Wunderground v.1.15,2013-06-06 00:00:00,
2013-06-05 20:02:00,76.5,55.9,30.04,North,360,8.0,14.0,49,0.00,,,0.00,Wunderground v.1.15,2013-06-06 00:02:00,
2013-06-05 20:06:00,76.3,56.3,30.04,North,360,7.0,14.0,50,0.00,,,0.00,Wunderground v.1.15,2013-06-06 00:06:00,
2013-06-05 20:08:00,76.3,56.3,30.04,North,360,8.0,14.0,50,0.00,,,0.00,Wunderground v.1.15,2013-06-06 00:08:00,
2013-06-05 20:10:00,76.1,56.1,30.04,North,360,8.0,9.0,50,0.00,,,0.00,Wunderground v.1.15,2013-06-06 00:10:00,
2013-06-05 20:12:00,76.0,56.0,30.04,North,360,8.0,9.0,50,0.00,,,0.00,Wunderground v.1.15,2013-06-06 00:12:00,
2013-06-05 20:14:00,75.9,55.9,30.04,North,360,8.0,9.0,50,0.00,,,0.00,Wunderground v.1.15,2013-06-06 00:14:00,
2013-06-05 20:20:00,75.8,56.4,30.04,North,360,8.0,8.0,51,0.00,,,0.00,Wunderground v.1.15,2013-06-06 00:20:00,
2013-06-05 20:24:00,75.7,56.3,30.04,North,360,7.0,8.0,51,0.00,,,0.00,Wunderground v.1.15,2013-06-06 00:24:00,
2013-06-05 20:28:00,75.7,56.8,30.03,North,360,6.0,13.0,52,0.00,,,0.00,Wunderground v.1.15,2013-06-06 00:28:00,
2013-06-05 20:30:00,75.5,56.6,30.04,North,360,7.0,7.0,52,0.00,,,0.00,Wunderground v.1.15,2013-06-06 00:30:00,
2013-06-05 20:32:00,75.4,56.5,30.04,North,360,8.0,9.0,52,0.00,,,0.00,Wunderground v.1.15,2013-06-06 00:32:00,
2013-06-05 20:34:00,75.3,56.5,30.04,North,360,8.0,9.0,52,0.00,,,0.00,Wunderground v.1.15,2013-06-06 00:34:00,
2013-06-05 20:40:00,75.1,56.8,30.04,North,360,9.0,9.0,53,0.00,,,0.00,Wunderground v.1.15,2013-06-06 00:40:00,
2013-06-05 20:42:00,75.0,56.7,30.03,North,360,9.0,9.0,53,0.00,,,0.00,Wunderground v.1.15,2013-06-06 00:42:00,
2013-06-05 20:46:00,74.8,57.0,30.04,North,360,9.0,9.0,54,0.00,,,0.00,Wunderground v.1.15,2013-06-06 00:46:00,
2013-06-05 20:48:00,74.8,57.0,30.04,North,360,8.0,9.0,54,0.00,,,0.00,Wunderground v.1.15,2013-06-06 00:48:00,
2013-06-05 20:52:00,74.7,56.9,30.03,North,360,7.0,7.0,54,0.00,,,0.00,Wunderground v.1.15,2013-06-06 00:52:00,
2013-06-05 20:58:00,74.6,56.9,30.04,North,360,7.0,11.0,54,0.00,,,0.00,Wunderground v.1.15,2013-06-06 00:58:00,
2013-06-05 21:00:00,74.6,56.9,30.04,North,360,7.0,7.0,54,0.00,,,0.00,Wunderground v.1.15,2013-06-06 01:00:00,
2013-06-05 21:02:00,74.5,56.8,30.04,North,360,6.0,7.0,54,0.00,,,0.00,Wunderground v.1.15,2013-06-06 01:02:00,
2013-06-05 21:04:00,74.5,56.8,30.04,North,360,6.0,7.0,54,0.00,,,0.00,Wunderground v.1.15,2013-06-06 01:04:00,
2013-06-05 21:08:00,74.4,56.7,30.04,North,360,6.0,9.0,54,0.00,,,0.00,Wunderground v.1.15,2013-06-06 01:08:00,
2013-06-05 21:10:00,74.4,56.7,30.04,North,360,6.0,6.0,54,0.00,,,0.00,Wunderground v.1.15,2013-06-06 01:10:00,
2013-06-05 21:12:00,74.3,56.6,30.04,North,360,7.0,7.0,54,0.00,,,0.00,Wunderground v.1.15,2013-06-06 01:12:00,
2013-06-05 21:14:00,74.2,56.5,30.04,North,360,7.0,7.0,54,0.00,,,0.00,Wunderground v.1.15,2013-06-06 01:14:00,
2013-06-05 21:16:00,74.1,56.4,30.04,North,360,7.0,10.0,54,0.00,,,0.00,Wunderground v.1.15,2013-06-06 01:16:00,
2013-06-05 21:18:00,74.0,56.8,30.04,North,360,8.0,10.0,55,0.00,,,0.00,Wunderground v.1.15,2013-06-06 01:18:00,
2013-06-05 21:20:00,73.9,56.7,30.04,North,360,9.0,12.0,55,0.00,,,0.00,Wunderground v.1.15,2013-06-06 01:20:00,
2013-06-05 21:22:00,73.9,56.7,30.04,North,360,9.0,12.0,55,0.00,,,0.00,Wunderground v.1.15,2013-06-06 01:22:00,
2013-06-05 21:26:00,73.8,57.1,30.04,North,360,7.0,12.0,56,0.00,,,0.00,Wunderground v.1.15,2013-06-06 01:26:00,
2013-06-05 21:28:00,73.8,57.1,30.04,North,360,6.0,12.0,56,0.00,,,0.00,Wunderground v.1.15,2013-06-06 01:28:00,
2013-06-05 21:32:00,73.6,56.9,30.04,North,360,5.0,9.0,56,0.00,,,0.00,Wunderground v.1.15,2013-06-06 01:32:00,
2013-06-05 21:34:00,73.5,56.8,30.05,North,360,6.0,10.0,56,0.00,,,0.00,Wunderground v.1.15,2013-06-06 01:34:00,
2013-06-05 21:36:00,73.4,57.2,30.05,North,360,6.0,10.0,57,0.00,,,0.00,Wunderground v.1.15,2013-06-06 01:36:00,
2013-06-05 21:40:00,73.3,57.1,30.05,North,360,7.0,11.0,57,0.00,,,0.00,Wunderground v.1.15,2013-06-06 01:40:00,
2013-06-05 21:42:00,73.2,57.1,30.05,North,360,7.0,11.0,57,0.00,,,0.00,Wunderground v.1.15,2013-06-06 01:42:00,
2013-06-05 21:46:00,73.0,56.9,30.05,North,360,7.0,11.0,57,0.00,,,0.00,Wunderground v.1.15,2013-06-06 01:46:00,
2013-06-05 21:48:00,72.9,56.8,30.05,North,360,8.0,11.0,57,0.00,,,0.00,Wunderground v.1.15,2013-06-06 01:48:00,
2013-06-05 21:54:00,72.8,56.7,30.05,North,360,6.0,8.0,57,0.00,,,0.00,Wunderground v.1.15,2013-06-06 01:54:00,
2013-06-05 21:56:00,72.7,57.1,30.05,North,360,5.0,8.0,58,0.00,,,0.00,Wunderground v.1.15,2013-06-06 01:56:00,
2013-06-05 22:00:00,72.5,56.9,30.05,North,360,5.0,5.0,58,0.00,,,0.00,Wunderground v.1.15,2013-06-06 02:00:00,
2013-06-05 22:02:00,72.5,56.9,30.05,North,360,4.0,10.0,58,0.00,,,0.00,Wunderground v.1.15,2013-06-06 02:02:00,
2013-06-05 22:04:00,72.4,56.8,30.05,North,360,5.0,10.0,58,0.00,,,0.00,Wunderground v.1.15,2013-06-06 02:04:00,
2013-06-05 22:06:00,72.3,56.7,30.05,North,360,6.0,13.0,58,0.00,,,0.00,Wunderground v.1.15,2013-06-06 02:06:00,
2013-06-05 22:08:00,72.1,56.5,30.06,North,360,7.0,13.0,58,0.00,,,0.00,Wunderground v.1.15,2013-06-06 02:08:00,
2013-06-05 22:10:00,71.9,56.3,30.06,North,360,7.0,7.0,58,0.00,,,0.00,Wunderground v.1.15,2013-06-06 02:10:00,
2013-06-05 22:12:00,71.9,56.8,30.06,North,360,7.0,7.0,59,0.00,,,0.00,Wunderground v.1.15,2013-06-06 02:12:00,
2013-06-05 22:18:00,71.6,56.5,30.06,North,360,5.0,10.0,59,0.00,,,0.00,Wunderground v.1.15,2013-06-06 02:18:00,
2013-06-05 22:20:00,71.6,56.5,30.06,North,360,5.0,5.0,59,0.00,,,0.00,Wunderground v.1.15,2013-06-06 02:20:00,
2013-06-05 22:22:00,71.5,56.4,30.06,North,360,4.0,5.0,59,0.00,,,0.00,Wunderground v.1.15,2013-06-06 02:22:00,
2013-06-05 22:26:00,71.4,56.3,30.06,North,360,3.0,5.0,59,0.00,,,0.00,Wunderground v.1.15,2013-06-06 02:26:00,
2013-06-05 22:28:00,71.3,56.2,30.06,North,360,4.0,5.0,59,0.00,,,0.00,Wunderground v.1.15,2013-06-06 02:28:00,
2013-06-05 22:32:00,71.1,56.0,30.06,North,360,5.0,11.0,59,0.00,,,0.00,Wunderground v.1.15,2013-06-06 02:32:00,
2013-06-05 22:36:00,71.0,55.9,30.06,North,360,6.0,11.0,59,0.00,,,0.00,Wunderground v.1.15,2013-06-06 02:36:00,
2013-06-05 22:40:00,70.9,55.9,30.06,North,360,6.0,6.0,59,0.00,,,0.00,Wunderground v.1.15,2013-06-06 02:40:00,
2013-06-05 22:42:00,70.8,56.2,30.06,North,360,5.0,6.0,60,0.00,,,0.00,Wunderground v.1.15,2013-06-06 02:42:00,
2013-06-05 22:44:00,70.7,55.7,30.06,North,360,5.0,6.0,59,0.00,,,0.00,Wunderground v.1.15,2013-06-06 02:44:00,
2013-06-05 22:46:00,70.6,55.6,30.06,North,360,6.0,6.0,59,0.00,,,0.00,Wunderground v.1.15,2013-06-06 02:46:00,
2013-06-05 22:48:00,70.5,55.5,30.06,North,360,5.0,6.0,59,0.00,,,0.00,Wunderground v.1.15,2013-06-06 02:48:00,
2013-06-05 22:52:00,70.3,55.3,30.06,North,360,6.0,6.0,59,0.00,,,0.00,Wunderground v.1.15,2013-06-06 02:52:00,
2013-06-05 22:54:00,70.3,55.3,30.06,North,360,6.0,10.0,59,0.00,,,0.00,Wunderground v.1.15,2013-06-06 02:54:00,
2013-06-05 22:56:00,70.2,55.2,30.06,North,360,6.0,10.0,59,0.00,,,0.00,Wunderground v.1.15,2013-06-06 02:56:00,
2013-06-05 22:58:00,70.1,55.1,30.06,North,360,6.0,10.0,59,0.00,,,0.00,Wunderground v.1.15,2013-06-06 02:58:00,
2013-06-05 23:00:00,70.1,55.1,30.06,North,360,5.0,5.0,59,0.00,,,0.00,Wunderground v.1.15,2013-06-06 03:00:00,
2013-06-05 23:04:00,70.0,55.0,30.07,North,360,4.0,5.0,59,0.00,,,0.00,Wunderground v.1.15,2013-06-06 03:04:00,
2013-06-05 23:08:00,69.9,54.9,30.07,North,360,4.0,6.0,59,0.00,,,0.00,Wunderground v.1.15,2013-06-06 03:08:00,
2013-06-05 23:10:00,69.8,55.3,30.07,North,360,5.0,11.0,60,0.00,,,0.00,Wunderground v.1.15,2013-06-06 03:10:00,
2013-06-05 23:14:00,69.7,55.2,30.07,North,360,6.0,11.0,60,0.00,,,0.00,Wunderground v.1.15,2013-06-06 03:14:00,
2013-06-05 23:16:00,69.7,55.2,30.07,North,360,6.0,11.0,60,0.00,,,0.00,Wunderground v.1.15,2013-06-06 03:16:00,
2013-06-05 23:18:00,69.6,55.6,30.07,North,360,5.0,11.0,61,0.00,,,0.00,Wunderground v.1.15,2013-06-06 03:18:00,
2013-06-05 23:22:00,69.6,55.6,30.07,North,360,4.0,7.0,61,0.00,,,0.00,Wunderground v.1.15,2013-06-06 03:22:00,
2013-06-05 23:24:00,69.5,55.5,30.07,North,360,4.0,7.0,61,0.00,,,0.00,Wunderground v.1.15,2013-06-06 03:24:00,
2013-06-05 23:30:00,69.3,55.3,30.07,North,360,4.0,4.0,61,0.00,,,0.00,Wunderground v.1.15,2013-06-06 03:30:00,
2013-06-05 23:36:00,69.2,55.2,30.07,North,360,6.0,11.0,61,0.00,,,0.00,Wunderground v.1.15,2013-06-06 03:36:00,
2013-06-05 23:38:00,69.2,55.2,30.07,North,360,6.0,11.0,61,0.00,,,0.00,Wunderground v.1.15,2013-06-06 03:38:00,
2013-06-05 23:42:00,69.0,55.0,30.07,North,360,8.0,10.0,61,0.00,,,0.00,Wunderground v.1.15,2013-06-06 03:42:00,
2013-06-05 23:44:00,69.0,55.0,30.07,North,360,8.0,10.0,61,0.00,,,0.00,Wunderground v.1.15,2013-06-06 03:44:00,
2013-06-05 23:46:00,69.0,55.0,30.07,North,360,8.0,10.0,61,0.00,,,0.00,Wunderground v.1.15,2013-06-06 03:46:00,
2013-06-05 23:48:00,69.0,55.0,30.07,North,360,7.0,10.0,61,0.00,,,0.00,Wunderground v.1.15,2013-06-06 03:48:00,
2013-06-05 23:54:00,69.0,55.4,30.07,North,360,5.0,8.0,62,0.00,,,0.00,Wunderground v.1.15,2013-06-06 03:54:00,
2013-06-05 23:56:00,69.0,55.4,30.07,North,360,5.0,8.0,62,0.00,,,0.00,Wunderground v.1.15,2013-06-06 03:56:00,
2013-06-05 23:58:00,69.0,55.4,30.07,North,360,5.0,8.0,62,0.00,,,0.00,Wunderground v.1.15,2013-06-06 03:58:00,